Погода в Куйбышевском

Россия / Самарская область     52°39′01″N   49°36′10″E
темп.,
°C
ветер,
м/с
пор.,
м/с
влажн.,
%
обл.,
%
осадки,
мм/ч
давл.,
гПа
погр.,
м
28 февраля, вс
вс2801:00−12ссз71294100 0.6 1001407
04:00−14ссз71294100 0.9 1003503
07:00−17сз61293100 0.1 1006411
10:00−17сз71193100 0.1 1007416
13:00−14сз61092100 0.0 1009496
16:00−12сз6991100 0.1 1010594
19:00−15ссз3796100 0.1 1013173
22:00−16сз489795 0.1 1015194
1 марта, пн
пн101:00−16сз489684 0.1 1016245
04:00−19сз469883 0.1 1018105
07:00−20сз359960 0.0 102082
10:00−19сз479551 0.0 1022239
13:00−16сз469364 0.0 1022308
16:00−14зсз369276 0.0 1023363
19:00−17з239541 0.0 102320
22:00−17юз349721 0.0 102345
2 марта, вт
вт201:00−16юз479761 0.0 1021100
04:00−14юз5109478 0.0 1018199
07:00−12юз71395100 0.0 1015329
10:00−8юз81494100 0.9 1012497
13:00−4юз91595100 1.3 1008660
16:00−1юз91496100 2.6 1005736
19:000зюз81397100 0.9 1003592
22:000з5997100 1.6 1003540
3 марта, ср
ср301:00−3зсз499598 0.1 1002212
04:00−7з479566 0.1 1003121
07:00−7зсз489662 0.1 1003186
10:00−5сз599570 0.3 1005342
13:00−3сз589393 0.1 1005553
16:00−3сз6109096 0.3 1006775
19:00−6сз5128897 0.1 1007382
22:00−8сз5119194 0.1 1010260
4 марта, чт
чт401:00−8сз6129398 0.1 1011343
04:00−10сз599487 0.1 1013178
07:00−13з45950 0.0 101484
10:00−10зюз58930 0.0 1014240
13:00−7юз711900 0.0 1012374
16:00−4юз9168837 0.0 1010650
19:00−3юз10198488 0.0 1009698
22:00−2зюз9178693 0.0 1009757